Preview of NWS' New Version of Forecast
This preview is not operational and should not be used for support decisions.

Regional Weather Roundup (RWR)

Issued by National Weather Service (NWS)

                            
000
ASUS43 KLSX 201757
RWRMO 

WEATHER SUMMARY FOR MISSOURI
NATIONAL WEATHER SERVICE SPRINGFIELD MO
100 PM CDT WED MAR 20 2019

NOTE: "FAIR" INDICATES FEW OR NO CLOUDS BELOW 12,000 FEET WITH NO
       SIGNIFICANT WEATHER AND/OR OBSTRUCTIONS TO VISIBILITY.
       CURRENT SKY AND/OR WEATHER CONDITIONS ARE NOT AVAILABLE FOR
       CHILLICOTHE AND FARMINGTON.

MOZ001>031-035>038-043-044-053-054-201900-
...NORTHERN AND WESTERN MISSOURI...
  
CITY           SKY/WX    TMP DP  RH WIND       PRES   REMARKS
KANSAS CTY INT PTSUNNY   50  41  71 W12       30.14F                  
6HR MIN TEMP:  41; 6HR MAX TEMP:  50;                                

LEE'S SUMMIT   PTSUNNY   49  40  71 W12       30.13F                  
6HR MIN TEMP:  42; 6HR MAX TEMP:  51;                                

ST JOSEPH      CLOUDY    44  37  76 NW9       30.14F                  
6HR MIN TEMP:  39; 6HR MAX TEMP:  44;                                

CHILLICOTHE      N/A     49  41  74 NW9       30.12F                  
6HR MIN TEMP:  41; 6HR MAX TEMP:  49;                                

     
$$
MOZ066>068-077>081-088>096-101>105-201900-
...SOUTHWEST MISSOURI...
  
CITY           SKY/WX    TMP DP  RH WIND       PRES   REMARKS
SPRINGFIELD    CLOUDY    45  42  89 W9        30.16F FOG              
6HR MIN TEMP:  44; 6HR MAX TEMP:  50; 6HR PCP: TRACE;                

JOPLIN         CLOUDY    50  39  66 NW9       30.20F                  
6HR MIN TEMP:  44; 6HR MAX TEMP:  51;                                

BRANSON        CLOUDY    46  37  71 W9G16     30.19F                  
               
$$
MOZ032>034-039>042-045>050-055>058-069>072-201900-
...CENTRAL MISSOURI...  
  
CITY           SKY/WX    TMP DP  RH WIND       PRES   REMARKS
COLUMBIA       NOT AVBL                                               
JEFFERSON CITY CLOUDY    49  39  68 W12       30.12F                  
6HR MIN TEMP:  47; 6HR MAX TEMP:  51; 6HR PCP: TRACE;                

SEDALIA        PTSUNNY   51  42  71 W14G21    30.12F                  
6HR MIN TEMP:  43; 6HR MAX TEMP:  51;                                

WARRENSBURG    CLOUDY    50  37  62 W9        30.15S                  
               
$$
MOZ051-052-059>065-201900-
...EAST CENTRAL MISSOURI...
  
CITY           SKY/WX    TMP DP  RH WIND       PRES   REMARKS
ST LOUIS INTL  CLOUDY    51  42  71 NW12      30.06F                  
6HR MIN TEMP:  46; 6HR MAX TEMP:  56;                                

                   
$$
MOZ072>076-082>087-097>100-106>115-201900-
...SOUTH CENTRAL AND SOUTHEAST MISSOURI...
  
CITY           SKY/WX    TMP DP  RH WIND       PRES   REMARKS
CAPE GIRARDEAU LGT RAIN  49  37  63 S9        30.14F                  
6HR MIN TEMP:  43; 6HR MAX TEMP:  50; 6HR PCP: TRACE;                

POPLAR BLUFF   LGT RAIN  50  41  71 SW9       30.15F                  
6HR MIN TEMP:  39; 6HR MAX TEMP:  51; 6HR PCP: TRACE;                

WEST PLAINS    CLOUDY    54  41  61 W10G20    30.14F                  
6HR MIN TEMP:  45; 6HR MAX TEMP:  55; 6HR PCP:  0.01;                

                                       
$$